Regional Weather Roundup
Issued by NWS

Home | Current Version | Previous Version | Text Only | Print | Product List | Glossary On
Versions: 1 2 3 4 5 6 7 8 9 10 11 12 13 14 15 16 17 18 19 20 21 22 23 24 25 26 27 28 29 30 31 32 33 34 35 36 37 38 39 40 41 42 43 44 45 46 47 48 49 50
000
ASUS42 KTBW 261810
RWRFL
FLORIDA REGIONAL WEATHER ROUNDUP
NATIONAL WEATHER SERVICE TAMPA BAY RUSKIN FL
200 PM EDT SAT JUL 26 2014

NOTE: "FAIR" INDICATES FEW OR NO CLOUDS BELOW 12,000 FEET WITH NO
SIGNIFICANT WEATHER AND/OR OBSTRUCTIONS TO VISIBILITY.


FLZ001>010-012>015-112-114-115-261900-
PANHANDLE FLORIDA

CITY           SKY/WX    TMP DP  RH WIND       PRES   REMARKS
PENSACOLA      PTSUNNY   88  75  65 SW8       30.05F HX  97
PENSACOLA NAS  PTSUNNY   86  78  77 SW14      30.06F HX  98
MILTON NAS     MOSUNNY   89  74  60 CALM      30.06F HX  98
CRESTVIEW      PTSUNNY   90  73  57 VRB3      30.07F HX  98
DUKE FIELD     FAIR      90  78  68 W5        30.06F HX 104
VALPARAISO     PTSUNNY   87  78  74 S10       30.06F HX  99
TRI COUNTY     MOCLDY    90  76  63 VRB3      30.05F HX 101
PANAMA CITY    FAIR      89  76  65 SW12      30.04F HX 100
TYNDALL AFB    PTSUNNY   86  79  78 SW12      30.08F HX 100
APALACHICOLA   PTSUNNY   86  76  71 W8        30.07F HX  96

STATION/POSITION SKY/WX   TEMP    WIND        PRES    WAVE   SWELL
                          AIR SEA DIR/SP/G            HT/PER HT/PER
                          (F)     (DEG/KT/KT) (MB)    (FT/S) (FT/S)
30.1N   87.6W              83 84  270/ 10/ 12 1018.4F   2/ 4
29.2N   88.2W              83 87  280/  8/ 10 1019.4F
28.8N   86.0W              84 85  280/ 10/ 12 1019.1S   2/ 4
PANAMA CITY BEAC           83 84  250/ 11/ 13 1018.1F
CAPE SAN BLAS    NOT AVBL
TOWER C                    83     270/ 11/ 12 1018.9S
28.5N   84.5W              84 86  270/  8/ 10 1019.1F   2/ 4   2/ 4

$$
FLZ011-016>038-118-127-128-134-139-239-261900-
NORTH FLORIDA

CITY           SKY/WX    TMP DP  RH WIND       PRES   REMARKS
MARIANNA       MOSUNNY   90  77  65 N6        30.05F HX 103
TALLAHASSEE    MOSUNNY   93  72  50 W10       30.05F HX 101
PERRY          PTSUNNY   88  72  58 W12       30.08S
CROSS CITY       N/A     91  75  59 SW12      30.07S HX 101
GAINESVILLE    MOSUNNY   87  74  64 W7        30.07S HX  95
MAYPORT NAS    PTSUNNY   91  70  49 VRB5      30.04F HX  96
JACKSONVILLE   PTSUNNY   89  73  59 SW8       30.03F HX  97
JAX NAS        PTSUNNY   95  70  44 W13       30.05F HX 101
JAX CRAIG      MOSUNNY   93  71  48 W10G18    30.04F HX 100
JAX CECIL      PTSUNNY   93  73  52 W14       30.05F HX 102
FERNANDINA BEA FAIR      86  72  62 NW8       30.03F
ST AUGUSTINE   PTSUNNY   94  71  47 SW9G16    30.06F HX 101

STATION/POSITION SKY/WX   TEMP    WIND        PRES    WAVE   SWELL
                          AIR SEA DIR/SP/G            HT/PER HT/PER
                          (F)     (DEG/KT/KT) (MB)    (FT/S) (FT/S)
SHELL POINT      NOT AVBL
KEATON BEACH               84     250/ 12/ 13 1018.7F
CEDAR KEY                  87     270/  7/  9 1019.3S
FERNANDINA                 82 85  320/  9/ 11 1017.0F
30.7N   81.3W                 85                N/A     2/ 8
MAYPORT                    89 86  250/  7/ 13   N/A
31.4N   80.9W              84 85  210/ 10/ 14 1017.4F   2/ 8   2/ 8
ST AUGUSTINE               90     240/  6/  8 1018.5F

$$
FLZ040-043>046-052-053-057-058-063-144-261900-
INTERIOR CENTRAL FLORIDA

CITY           SKY/WX    TMP DP  RH WIND       PRES   REMARKS
OCALA          MOSUNNY   91  70  49 W7G16     30.09S HX  97
LEESBURG       PTSUNNY   86  76  71 SW3       30.10F HX  96
SANFORD        MOSUNNY   93  73  52 W17G25    30.08  THUNDER HX 102
ORLANDO EXEC   PTSUNNY   92  73  53 NW9       30.08F HX 100
ORLANDO INTL   PTSUNNY   91  72  53 SW7       30.08F HX  98
KISSIMMEE      MOSUNNY   91  75  59 SW5       30.09F HX 102
WINTER HAVEN   PTSUNNY   85  74  69 W9        30.11S
LAKELAND       MOSUNNY   77  75  94 SW5       30.11F
BARTOW         RAIN      81  75  83 W12       30.11F
OKEECHOBEE     PTSUNNY   88  73  62 MISG      30.10F HX  96

$$
FLZ041-047-054-059-064-141-147-261900-
EAST CENTRAL FLORIDA

CITY           SKY/WX    TMP DP  RH WIND       PRES   REMARKS
ORMOND BEACH   SUNNY     90  73  58 W7        30.08S HX  98
DAYTONA BEACH  PTSUNNY   90  74  59 W8        30.08S HX  99
DELAND         PTCLDY    88  75  66 MISG      30.09F HX  97
NEW SMYRNA BEA MOSUNNY   91  75  59 W8        30.09S HX 102
JFK SPACE CTR  MOSUNNY   91  77  63 SW5       30.08F HX 104
TITUSVILLE     MOSUNNY   91  73  55 SW7       30.08F HX 100
CAPE CANAVERAL SUNNY     91  76  61 VRB6      30.07F HX 103
PATRICK AFB    SUNNY     89  78  71 SE9       30.08F HX 102
MELBOURNE      MOSUNNY   93  74  53 VRB5      30.08F HX 103
VERO BEACH     PTSUNNY   86  79  79 E9        30.10S HX  99
FT PIERCE      PTSUNNY   87  75  67 SE14      30.10R HX  96
STUART         PTSUNNY   86  77  74 E9        30.11S HX  97

STATION/POSITION SKY/WX   TEMP    WIND        PRES    WAVE   SWELL
                          AIR SEA DIR/SP/G            HT/PER HT/PER
                          (F)     (DEG/KT/KT) (MB)    (FT/S) (FT/S)
28.5N   80.2W              83 85  220/  4/  6 1019.6S
28.9N   78.5W              84 85  210/  8/ 10 1019.7F   3/ 8   2/ 8
TRIDENT PIER               89 87  140/  6/  8 1018.3F
28.4N   80.5W                 86                N/A     1/ 8
27.6N   80.2W                 85                N/A     1/ 8

$$
FLZ050-056-061-142-242-148-248-149-249-151-251-155-255-
160-260-261900-
WEST CENTRAL FLORIDA

CITY           SKY/WX    TMP DP  RH WIND       PRES   REMARKS
CRYSTAL RIVER  CLOUDY    90  73  58 W8        30.09F HX  98
INVERNESS      FAIR      90  70  51 NW3       30.09F HX  95
BROOKSVILLE    PTSUNNY   92  69  47 W7        30.09F HX  97
ZEPHYRHILLS    FAIR      81  77  89 SW6       30.11S
CLEARWATER     PTSUNNY   88  74  63 NW12      30.10S HX  96
TAMPA INTL     CLOUDY    88  73  61 W8        30.10S HX  95
TAMPA EXEC     PTSUNNY   84  73  70 CALM      30.11S
PLANT CITY     PTSUNNY   84  72  65 CALM      30.12F
MACDILL AFB    LGT RAIN  88  80  78 VRB6      30.10F HX 104
ST PETERSBURG  CLOUDY    87  74  64 W8        30.08F HX  95
SARASOTA       CLOUDY    91  76  61 W9        30.09F HX 103
VENICE         FAIR      88  75  66 W7        30.11F HX  97

STATION/POSITION SKY/WX   TEMP    WIND        PRES    WAVE   SWELL
                          AIR SEA DIR/SP/G            HT/PER HT/PER
                          (F)     (DEG/KT/KT) (MB)    (FT/S) (FT/S)
CEDAR KEY                  87     270/  7/  9 1019.3S
28.5N   84.5W              84 86  270/  8/ 10 1019.1F   2/ 4   2/ 4
27.3N   84.3W                 89                N/A     1/ 9
CLEARWATER BEACH           86 89  260/  8/ 10 1019.2F
MIDDLE TAMPA BAY           86     280/  7/  9 1019.5F
VENICE                     86 90  260/  4/  5 1018.9F

$$
FLZ066-069-070-075>078-162-262-165-265-261900-
SOUTHWEST FLORIDA AND KEYS

CITY           SKY/WX    TMP DP  RH WIND       PRES   REMARKS
PUNTA GORDA    SUNNY     92  74  55 VRB6      30.11F HX 101
FT MYERS       CLOUDY    87  75  67 CALM      30.09S HX  96
SOUTHWEST INTL CLOUDY    84  75  74 SE6       30.10F
NAPLES         CLOUDY    84  81  90 W3        30.11S HX  99
MARATHON       SUNNY     93  74  53 SE6       30.10F HX 103
KEY WEST NAS   MOSUNNY   91  74  57 S8        30.11R HX 100
KEY WEST INTL  SUNNY     90  74  59 SE6       30.11S HX  99

STATION/POSITION SKY/WX   TEMP    WIND        PRES    WAVE   SWELL
                          AIR SEA DIR/SP/G            HT/PER HT/PER
                          (F)     (DEG/KT/KT) (MB)    (FT/S) (FT/S)
VENICE                     86 90  260/  4/  5 1018.9F
NAPLES                     83 92  190/  2/  4 1020.3R
DRY TORTUGAS               85      30/  9/ 10 1019.7F
SAND KEY                   85     120/  6/  9 1019.5F
SOMBRERO KEY               87     120/  8/  9 1020.1F
LONG KEY                   87 90  150/  6/  8 1020.1F
MOLASSES REEF              85 87  150/  2/  4 1019.5F

$$
FLZ067-068-071>074-168-172>174-261900-
SOUTHEAST FLORIDA

CITY           SKY/WX    TMP DP  RH WIND       PRES   REMARKS
W PALM BEACH   TSTM      80  74  81 S9        30.10S
FT LAUDER-EXEC CLOUDY    82  76  81 NE5       30.12F
FT LAUDERDALE  CLOUDY    83  78  85 S3        30.11F
POMPANO BEACH  CLOUDY    87  76  69 N5        30.11F HX  97
PEMBROKE PINES LGT RAIN  82  76  81 SE7       30.12F
OPA LOCKA      PTSUNNY   82  70  66 E7        30.12R THUNDER
MIAMI          PTSUNNY   90  75  61 VRB6      30.10F HX 100
WEST KENDALL   CLOUDY    92  73  53 SW3       30.09F HX 100
HOMESTEAD      NOT AVBL

STATION/POSITION SKY/WX   TEMP    WIND        PRES    WAVE   SWELL
                          AIR SEA DIR/SP/G            HT/PER HT/PER
                          (F)     (DEG/KT/KT) (MB)    (FT/S) (FT/S)
PORT EVERGLADES            85     170/  7/  9 1019.8
VIRGINIA KEY               86 89  150/  8/ 10   N/A
LAKE WORTH                 80 85              1019.2F
FOWEY ROCKS                87 87  160/  9/ 11 1019.8F
SETTLEMENT POINT           85     190/  8/ 10 1020.4F

$$



USA.gov is the U.S. government's official web portal to all federal, state and local government web resources and services.